Location: Hurstbourne Priors
(51.2000°N, 1.3667°W)
Time: 13:40:32
(UTC+00:00)

MOS 1-B Rocket - Pass Details

Date: 09 April 2020
Orbit: 891 x 1605 km, 99.1° (Epoch: 02 June)

Event Time Altitude Azimuth Distance (km) Brightness Sun altitude
Rises 23:33:14 0° 18° (NNE) 3,682 7.9 -30.3°
Reaches altitude 10° 23:35:37 10° 22° (NNE) 2,796 7.1 -30.4°
Enters shadow 23:41:38 59° 94° (E) 1,274 4.4 -30.5°
